Showing default

SJ-16, 39358

Orbit data source: Space-Track

SJ-16, 39358 is a payload satellite owned by CNMSC (CN) in LEO that was launched on Fri, 25 Oct 2013 UTC via a CHANG ZHENG 4B launch vehicle from the Jiuquan Satellite Launch Center, China (JSC). Payload-class satellites include a variety of spacecraft equipped with specific instruments for various scientific and technological missions. These include communications satellites like Starlink; space stations such as the ISS; scientific satellites like the Hubble; Earth observation satellites from companies like Planet Labs, Umbra, and HawkEye 360; GPS; miniature CubeSats for education and research; and military/defense satellites.

Loading next visibility...
Identifier
39358, 2013-057A
Orbit
LEO
Country
Flag of CNCN / PRC
Related business
Manufacturer
SISE
Mission
Operational Defense Technology
Bus & Motor
SJ-16, Unknown motor
Mass
~2,000 kg wet, ~2,000 kg dry
Launch date (UTC)
2013-10-25 (12 years ago)
Launch vehicle
CHANG ZHENG 4B
Launch site
Jiuquan Satellite Launch Center, China (JSC)
Object type
Payload
Rocket body
Debris
Shape & HBR
Box + 2 Pan, 5.0 m
Radar Cross Section
14.304 m², Large (>1 m²)

Expand to show TLE details & history
Last TLE update: 1 day ago

TLE from 1 day ago
0 SJ-16
1 39358U 13057A   25306.50085838  .00002725  00000-0  27250-3 0  9992
2 39358  74.9732  65.7759 0016076  59.0918 301.1848 14.91763225652539
Epoch: 2025-11-02T12:01Z
TLE epoch observation values (Epoch: 2025-11-02T12:01:14.164Z)
Latitude
0.00001°
Longitude
-156.5488°
Altitude
589.379 km
Speed
7.569 km/s
True Right ascension
04h 23m 06s
True Declination
0° 00' 00"
Sunlit
Object was in full shadow at epoch
Visualization orbit readout
Latitude
Unknown
Longitude
Unknown
Altitude
Unknown
Speed
Unknown
Apparent Right ascension
Unknown
Apparent Declination
Unknown
Sunlit
N/A
Visualization observer readout
Local Sidereal Time
17:50:43
Azimuth
Unknown
Elevation
Unknown
Doppler factor
Unknown
Orbital elements
Apogee altitude
601.122 km
Perigee altitude
578.719 km
Semi-major axis
6,968.057 km
Eccentricity
0.00161
Inclination
74.9732°
RAAN
65.7759°
Arg. of periapsis
59.0918°
True anomaly
301.02704°
Mean anomaly
301.1848°
Eccentric anomaly
301.10594°
Mean motion
3.73143 °/min
Orbital period
96.48 mins
BSTAR
0.0002725
Loading maneuver chart data...
Computing Atmospheric mass density...
Loading historical data...
Loading historical data...
Loading historical data...
Loading historical data...
Loading historical data...
Loading historical data...
Loading historical data...
Other satellites on launch #57 in the year 2013 (2013-10-25 UTC)

Documentation

Showing up to 5 results
|